Location: Newark
(42.6681°N, 4.0833°W)
Time: 20:43:27
(UTC+00:00)

X-37B - Pass Details

Date: 06 October 2020
Orbit: 382 x 392 km, 45.0° (Epoch: 15 October)

Event Time Altitude Azimuth Distance (km) Brightness Sun altitude
Rises 20:01:01 0° 273° (W) 2,264 5.7 -25.0°
Reaches altitude 10° 20:03:08 10° 279° (W) 1,408 4.4 -25.4°
Enters shadow 20:04:39 25° 290° (WNW) 831 2.9 -25.6°
